LiveATC.Net - Listen to live air traffic control over the Internet!


ICAO: KACT  IATA: ACT   Airport: Waco Regional Airport
City: Waco   State/Province: Texas
Country: United States   Continent: North America
KACT METAR Weather: KACT 240951Z AUTO 16007KT 10SM CLR 26/23 A2994 RMK AO2 SLP129 T02560228
KACT Flight Activity (FlightAware)
KACT Airport Info   (iFlightPlanner)
KACT VFR Sectional Chart   (iFlightPlanner) 
KACT IFR Low Chart   (iFlightPlanner) 

KACT Gnd/Twr/Ops
Feed Status: DOWN
Last heard on: 2019-08-17 13:10:40 (6 days 21 hours 10 minutes ago)
KACT Gnd/Twr/Ops Audio Archives
FacilityFrequency
Waco Ground121.900
Waco Tower119.300

NOTICE

Unauthorized use prohibited. See LiveATC.net Terms of Service


Airport/ARTCC Code
Frequency Search
(e.g., 124.400, 128.75)
Site-wide search
 


Browse LiveATC Feeds
Top 50 LiveATC Feeds
LiveATC Feed Map
Bad Weather Areas

LiveATC FAQ
Offer LiveATC feed
Contact LiveATC.net
Press Inquiries

LiveATC on iPhone
LiveATC on Android

Windows Phone
Windows 8/10

LiveATC Mobile
(Mobile browser)

ATC Audio Archives
Interesting Recordings

LiveATC Forums


Home Page
About LiveATC.net
Make a Donation
Terms of Use
Privacy Policy

Canadian Air Freqs

AIRMETs/SIGMETs

FAA Airport Status
Nat'l Airspace Status
Arrival Demand Charts


Server Software By:
Icecast.org
Liquidsoap